Flag for Germany Past Weather in Neuburg an der Donau, Bavaria, Germany — Yesterday and Last 2 Weeks

Now
63 °F

Light rain. More clouds than sun.


Feels Like: 63 °F
Forecast: 58 / 81 °F
Wind: 6 mph from Southwest

Location: Neuburg / Donau

Current Time: Jun 30, 2016 at 10:47:49 AM

Latest Report: Jun 30, 2016 at 10:20 AM


Visibility: N/A

Pressure: 30.04 "Hg

Humidity: 94%

Dew Point: 61 °F

Location of Neuburg an der DonauLocation

Past Weather in Neuburg an der Donau — Graph

°F

Neuburg an der Donau Temperature Yesterday

Maximum temperature yesterday: 77 °F (at 3:20 PM)
Minimum temperature yesterday: 59 °F (at 3:20 AM)
Average temperature yesterday: 69 °F

High & Low Weather Summary for the Past Weeks

 TemperatureHumidityPressure
High90 °F (Jun 24, 5:20 PM)100% (Jun 18, 1:20 AM)30.27 "Hg (Jun 18, 1:20 AM)
Low46 °F (Jun 18, 5:20 AM)38% (Jun 24, 5:20 PM)29.59 "Hg (Jun 15, 12:50 PM)
Average65 °F73%30.03 "Hg
* Reported Jun 15 9:20 AM — Jun 30 9:20 AM, Neuburg an der Donau, Weather by CustomWeather, © 2016

Note: Actual official high and low records may vary slightly from our data, if they occured in-between our weather recording intervals... More about our weather records

Advertising

Neuburg an der Donau Weather History for the Previous 24 Hours

Scroll right to see more
 ConditionsComfort  
Time TempWeatherWind HumidityBarometerVisibility
9:20 AM
Thu, Jun 30
63 °FRain. Partly sunny.5 mph94%30.04 "Hg4 mi
8:20 AM61 °FLight rain. Broken clouds.10 mph94%30.01 "HgN/A
7:20 AM63 °FScattered showers. Broken clouds.8 mph88%30.01 "HgN/A
6:20 AM61 °FScattered showers. Partly sunny.7 mph94%29.98 "HgN/A
5:20 AM61 °FThunderstorms. Partly cloudy.5 mph94%29.95 "HgN/A
4:47 AM61 °FThunderstorms. Partly cloudy.2 mph88%29.95 "HgN/A
4:20 AM59 °FPassing clouds.2 mph94%29.95 "HgN/A
3:20 AM59 °FPassing clouds.2 mph94%29.95 "HgN/A
2:20 AM63 °FPassing clouds.2 mph83%29.95 "HgN/A
1:20 AM64 °FPassing clouds.2 mph78%29.95 "HgN/A
12:20 AM64 °FPassing clouds.2 mph83%29.95 "HgN/A
11:20 PM
Wed, Jun 29
64 °FPassing clouds.3 mph83%29.95 "HgN/A
10:20 PM66 °FPassing clouds.2 mph78%29.95 "HgN/A
9:20 PM72 °FPassing clouds.3 mph65%29.95 "HgN/A
8:20 PM77 °FPassing clouds.2 mph51%29.95 "HgN/A
7:20 PM77 °FScattered clouds.3 mph51%29.95 "HgN/A
6:20 PM77 °FPartly sunny.7 mph47%29.95 "HgN/A
5:20 PM77 °FPartly sunny.7 mph47%29.95 "HgN/A
4:20 PM77 °FPartly sunny.9 mph47%29.98 "HgN/A
3:20 PM77 °FPartly sunny.10 mph47%29.98 "HgN/A
2:20 PM75 °FBroken clouds.12 mph50%30.01 "HgN/A
1:20 PM73 °FPartly sunny.10 mph53%30.01 "HgN/A
12:20 PM73 °FPartly sunny.12 mph53%30.01 "HgN/A
11:20 AM72 °FScattered clouds.14 mph57%30.01 "HgN/A
10:20 AM72 °FPassing clouds.12 mph61%30.01 "HgN/A
Weather by CustomWeather, © 2016

See weather overviewHow to use our weather pages